Time,TemperatureF,DewpointF,PressureIn,WindDirection,WindDirectionDegrees,WindSpeedMPH,WindSpeedGustMPH,Humidity,HourlyPrecipIn,Conditions,Clouds,dailyrainin,SolarRadiationWatts/m^2,SoftwareType,DateUTC
2013-02-26 00:00:00,23.8,21.0,30.17,WSW,238,1.0,3.0,89,0.00,,,0.00,0,Wunderground v.1.15,2013-02-26 05:00:00,
2013-02-26 00:01:00,23.7,20.7,30.17,SW,236,1.0,3.0,88,0.00,,,0.00,0,Wunderground v.1.15,2013-02-26 05:01:00,
2013-02-26 00:04:00,23.6,20.6,30.17,WSW,237,1.0,3.0,88,0.00,,,0.00,0,Wunderground v.1.15,2013-02-26 05:04:00,
2013-02-26 00:07:00,23.6,20.6,30.17,WSW,239,2.0,3.0,88,0.00,,,0.00,0,Wunderground v.1.15,2013-02-26 05:07:00,
2013-02-26 00:12:00,23.5,20.5,30.16,WSW,237,2.0,4.0,88,0.00,,,0.00,0,Wunderground v.1.15,2013-02-26 05:12:00,
2013-02-26 00:17:00,23.5,20.7,30.17,WSW,238,3.0,4.0,89,0.00,,,0.00,0,Wunderground v.1.15,2013-02-26 05:17:00,
2013-02-26 00:23:00,23.5,20.7,30.16,SW,236,2.0,3.0,89,0.00,,,0.00,0,Wunderground v.1.15,2013-02-26 05:23:00,
2013-02-26 00:28:00,23.5,20.7,30.16,WSW,237,1.0,3.0,89,0.00,,,0.00,0,Wunderground v.1.15,2013-02-26 05:28:00,
2013-02-26 00:33:00,23.5,20.7,30.16,WSW,238,0.0,0.0,89,0.00,,,0.00,0,Wunderground v.1.15,2013-02-26 05:33:00,
2013-02-26 00:39:00,23.5,21.0,30.16,WSW,238,0.0,0.0,90,0.00,,,0.00,0,Wunderground v.1.15,2013-02-26 05:39:00,
2013-02-26 00:44:00,23.4,20.9,30.16,WSW,237,0.0,0.0,90,0.00,,,0.00,0,Wunderground v.1.15,2013-02-26 05:44:00,
2013-02-26 00:49:00,23.4,20.9,30.16,WSW,240,0.0,0.0,90,0.00,,,0.00,0,Wunderground v.1.15,2013-02-26 05:49:00,
2013-02-26 00:55:00,23.3,20.8,30.16,WSW,238,0.0,0.0,90,0.00,,,0.00,0,Wunderground v.1.15,2013-02-26 05:55:00,
2013-02-26 01:00:00,23.3,20.8,30.16,WSW,237,0.0,0.0,90,0.00,,,0.00,0,Wunderground v.1.15,2013-02-26 06:00:00,
2013-02-26 01:06:00,23.2,20.4,30.17,WSW,238,1.0,3.0,89,0.00,,,0.00,0,Wunderground v.1.15,2013-02-26 06:06:00,
2013-02-26 01:11:00,23.0,20.2,30.17,WSW,238,2.0,4.0,89,0.00,,,0.00,0,Wunderground v.1.15,2013-02-26 06:11:00,
2013-02-26 01:17:00,22.9,20.1,30.18,SW,236,3.0,4.0,89,0.00,,,0.00,0,Wunderground v.1.15,2013-02-26 06:17:00,
2013-02-26 01:22:00,22.9,20.4,30.18,WSW,237,3.0,3.0,90,0.00,,,0.00,0,Wunderground v.1.15,2013-02-26 06:22:00,
2013-02-26 01:27:00,22.9,20.4,30.18,WSW,238,1.0,3.0,90,0.00,,,0.00,0,Wunderground v.1.15,2013-02-26 06:27:00,
2013-02-26 01:33:00,22.9,20.4,30.18,WSW,238,1.0,2.0,90,0.00,,,0.00,0,Wunderground v.1.15,2013-02-26 06:33:00,
2013-02-26 01:38:00,22.7,20.2,30.18,WSW,238,2.0,2.0,90,0.00,,,0.00,0,Wunderground v.1.15,2013-02-26 06:38:00,
2013-02-26 01:43:00,22.5,20.0,30.18,SW,236,1.0,2.0,90,0.00,,,0.00,0,Wunderground v.1.15,2013-02-26 06:43:00,
2013-02-26 01:48:00,22.5,20.0,30.18,SW,236,0.0,2.0,90,0.00,,,0.00,0,Wunderground v.1.15,2013-02-26 06:48:00,
2013-02-26 01:54:00,22.3,19.6,30.18,WSW,237,1.0,2.0,89,0.00,,,0.00,0,Wunderground v.1.15,2013-02-26 06:54:00,
2013-02-26 01:59:00,22.2,19.7,30.18,WSW,238,1.0,2.0,90,0.00,,,0.00,0,Wunderground v.1.15,2013-02-26 06:59:00,
2013-02-26 02:05:00,22.2,19.7,30.17,SW,236,0.0,1.0,90,0.00,,,0.00,0,Wunderground v.1.15,2013-02-26 07:05:00,
2013-02-26 02:11:00,22.3,20.1,30.17,SW,235,0.0,0.0,91,0.00,,,0.00,0,Wunderground v.1.15,2013-02-26 07:11:00,
2013-02-26 02:16:00,22.2,19.7,30.17,WSW,238,0.0,2.0,90,0.00,,,0.00,0,Wunderground v.1.15,2013-02-26 07:16:00,
2013-02-26 02:21:00,22.1,19.9,30.17,WSW,239,0.0,0.0,91,0.00,,,0.00,0,Wunderground v.1.15,2013-02-26 07:21:00,
2013-02-26 02:26:00,22.1,19.6,30.17,WSW,238,0.0,0.0,90,0.00,,,0.00,0,Wunderground v.1.15,2013-02-26 07:26:00,
2013-02-26 02:32:00,22.1,19.9,30.17,SW,236,0.0,0.0,91,0.00,,,0.00,0,Wunderground v.1.15,2013-02-26 07:32:00,
2013-02-26 02:37:00,22.1,19.9,30.16,WSW,237,0.0,0.0,91,0.00,,,0.00,0,Wunderground v.1.15,2013-02-26 07:37:00,
2013-02-26 02:42:00,22.3,20.1,30.15,SW,236,0.0,0.0,91,0.00,,,0.00,0,Wunderground v.1.15,2013-02-26 07:42:00,
2013-02-26 02:48:00,22.5,20.3,30.15,WSW,238,0.0,0.0,91,0.00,,,0.00,0,Wunderground v.1.15,2013-02-26 07:48:00,
2013-02-26 02:53:00,22.5,20.3,30.15,SW,236,0.0,0.0,91,0.00,,,0.00,0,Wunderground v.1.15,2013-02-26 07:53:00,
2013-02-26 02:58:00,22.5,20.3,30.15,WSW,238,0.0,0.0,91,0.00,,,0.00,0,Wunderground v.1.15,2013-02-26 07:58:00,
2013-02-26 03:04:00,22.5,20.3,30.15,WSW,238,0.0,0.0,91,0.00,,,0.00,0,Wunderground v.1.15,2013-02-26 08:04:00,
2013-02-26 03:10:00,22.5,20.3,30.15,WSW,238,0.0,0.0,91,0.00,,,0.00,0,Wunderground v.1.15,2013-02-26 08:10:00,
2013-02-26 03:15:00,22.4,20.2,30.15,WSW,239,0.0,0.0,91,0.00,,,0.00,0,Wunderground v.1.15,2013-02-26 08:15:00,
2013-02-26 03:20:00,22.5,20.3,30.14,WSW,237,0.0,0.0,91,0.00,,,0.00,0,Wunderground v.1.15,2013-02-26 08:20:00,
2013-02-26 03:26:00,22.4,20.2,30.15,WSW,238,0.0,1.0,91,0.00,,,0.00,0,Wunderground v.1.15,2013-02-26 08:26:00,
2013-02-26 03:31:00,22.5,20.3,30.14,SW,236,0.0,0.0,91,0.00,,,0.00,0,Wunderground v.1.15,2013-02-26 08:31:00,
2013-02-26 03:36:00,22.6,20.4,30.14,WSW,237,0.0,1.0,91,0.00,,,0.00,0,Wunderground v.1.15,2013-02-26 08:36:00,
2013-02-26 03:42:00,22.7,20.5,30.14,SW,236,0.0,0.0,91,0.00,,,0.00,0,Wunderground v.1.15,2013-02-26 08:42:00,
2013-02-26 03:47:00,22.8,20.6,30.13,WSW,237,0.0,0.0,91,0.00,,,0.00,0,Wunderground v.1.15,2013-02-26 08:47:00,
2013-02-26 03:52:00,22.8,20.3,30.14,WSW,237,0.0,0.0,90,0.00,,,0.00,0,Wunderground v.1.15,2013-02-26 08:52:00,
2013-02-26 03:58:00,22.8,20.3,30.13,WSW,238,0.0,0.0,90,0.00,,,0.00,0,Wunderground v.1.15,2013-02-26 08:58:00,
2013-02-26 04:04:00,22.6,20.1,30.12,SW,236,0.0,0.0,90,0.00,,,0.00,0,Wunderground v.1.15,2013-02-26 09:04:00,
2013-02-26 04:09:00,22.6,20.1,30.11,WSW,238,0.0,0.0,90,0.00,,,0.00,0,Wunderground v.1.15,2013-02-26 09:09:00,
2013-02-26 04:14:00,22.7,20.2,30.11,SW,236,0.0,0.0,90,0.00,,,0.00,0,Wunderground v.1.15,2013-02-26 09:14:00,
2013-02-26 04:19:00,22.9,20.4,30.11,WSW,237,0.0,0.0,90,0.00,,,0.00,0,Wunderground v.1.15,2013-02-26 09:19:00,
2013-02-26 04:25:00,22.8,20.3,30.12,SW,236,0.0,0.0,90,0.00,,,0.00,0,Wunderground v.1.15,2013-02-26 09:25:00,
2013-02-26 04:30:00,22.8,20.3,30.12,WSW,238,0.0,0.0,90,0.00,,,0.00,0,Wunderground v.1.15,2013-02-26 09:30:00,
2013-02-26 04:36:00,22.7,20.2,30.13,SW,236,0.0,1.0,90,0.00,,,0.00,0,Wunderground v.1.15,2013-02-26 09:36:00,
2013-02-26 04:41:00,22.7,20.5,30.13,WSW,237,1.0,1.0,91,0.00,,,0.00,0,Wunderground v.1.15,2013-02-26 09:41:00,
2013-02-26 04:46:00,22.8,20.3,30.12,WSW,238,0.0,1.0,90,0.00,,,0.00,0,Wunderground v.1.15,2013-02-26 09:46:00,
2013-02-26 04:52:00,22.9,20.4,30.11,SW,234,0.0,2.0,90,0.00,,,0.00,0,Wunderground v.1.15,2013-02-26 09:52:00,
2013-02-26 04:57:00,23.0,20.8,30.11,WSW,238,1.0,2.0,91,0.00,,,0.00,0,Wunderground v.1.15,2013-02-26 09:57:00,
2013-02-26 05:03:00,23.2,20.7,30.12,SW,236,1.0,3.0,90,0.00,,,0.00,0,Wunderground v.1.15,2013-02-26 10:03:00,
2013-02-26 05:08:00,23.2,20.7,30.13,WSW,237,2.0,3.0,90,0.00,,,0.00,0,Wunderground v.1.15,2013-02-26 10:08:00,
2013-02-26 05:13:00,23.2,20.7,30.13,WSW,238,2.0,3.0,90,0.00,,,0.00,0,Wunderground v.1.15,2013-02-26 10:13:00,
2013-02-26 05:19:00,23.2,20.7,30.14,WSW,238,1.0,3.0,90,0.00,,,0.00,0,Wunderground v.1.15,2013-02-26 10:19:00,
2013-02-26 05:24:00,23.2,20.7,30.14,WSW,238,1.0,2.0,90,0.00,,,0.00,0,Wunderground v.1.15,2013-02-26 10:24:00,
2013-02-26 05:30:00,23.2,20.7,30.13,SW,236,1.0,1.0,90,0.00,,,0.00,0,Wunderground v.1.15,2013-02-26 10:30:00,
2013-02-26 05:35:00,23.3,20.8,30.13,SW,236,1.0,3.0,90,0.00,,,0.00,0,Wunderground v.1.15,2013-02-26 10:35:00,
2013-02-26 05:40:00,23.5,21.0,30.13,SW,235,2.0,2.0,90,0.00,,,0.00,0,Wunderground v.1.15,2013-02-26 10:40:00,
2013-02-26 05:45:00,23.5,21.0,30.13,SW,236,2.0,2.0,90,0.00,,,0.00,0,Wunderground v.1.15,2013-02-26 10:45:00,
2013-02-26 05:51:00,23.6,21.1,30.13,SW,234,1.0,1.0,90,0.00,,,0.00,0,Wunderground v.1.15,2013-02-26 10:51:00,
2013-02-26 05:56:00,23.7,20.9,30.13,WSW,238,1.0,1.0,89,0.00,,,0.00,0,Wunderground v.1.15,2013-02-26 10:56:00,
2013-02-26 06:02:00,23.8,21.0,30.13,WSW,238,1.0,1.0,89,0.00,,,0.00,0,Wunderground v.1.15,2013-02-26 11:02:00,
2013-02-26 06:07:00,23.9,21.4,30.12,WSW,238,0.0,1.0,90,0.00,,,0.00,0,Wunderground v.1.15,2013-02-26 11:07:00,
2013-02-26 06:13:00,23.9,21.4,30.13,WSW,238,0.0,0.0,90,0.00,,,0.00,0,Wunderground v.1.15,2013-02-26 11:13:00,
2013-02-26 06:18:00,23.9,21.4,30.12,WSW,238,0.0,0.0,90,0.00,,,0.00,0,Wunderground v.1.15,2013-02-26 11:18:00,
2013-02-26 06:23:00,23.8,21.3,30.13,SW,236,1.0,3.0,90,0.00,,,0.00,0,Wunderground v.1.15,2013-02-26 11:23:00,
2013-02-26 06:29:00,23.8,21.6,30.13,WSW,237,2.0,3.0,91,0.00,,,0.00,0,Wunderground v.1.15,2013-02-26 11:29:00,
2013-02-26 06:34:00,23.9,21.7,30.12,WSW,238,1.0,2.0,91,0.00,,,0.00,0,Wunderground v.1.15,2013-02-26 11:34:00,
2013-02-26 06:39:00,23.9,21.7,30.12,SW,236,0.0,2.0,91,0.00,,,0.00,0,Wunderground v.1.15,2013-02-26 11:39:00,
2013-02-26 06:45:00,24.0,21.8,30.12,WSW,238,0.0,0.0,91,0.00,,,0.00,0,Wunderground v.1.15,2013-02-26 11:45:00,
2013-02-26 06:50:00,24.0,21.8,30.12,SW,236,0.0,0.0,91,0.00,,,0.00,0,Wunderground v.1.15,2013-02-26 11:50:00,
2013-02-26 06:55:00,24.1,21.9,30.11,SW,235,0.0,0.0,91,0.00,,,0.00,0,Wunderground v.1.15,2013-02-26 11:55:00,
2013-02-26 07:00:00,24.2,22.0,30.11,WSW,238,0.0,0.0,91,0.00,,,0.00,0,Wunderground v.1.15,2013-02-26 12:00:00,
2013-02-26 07:06:00,24.2,22.0,30.12,SW,236,0.0,0.0,91,0.00,,,0.00,7,Wunderground v.1.15,2013-02-26 12:06:00,
2013-02-26 07:12:00,24.2,22.0,30.12,WSW,238,0.0,0.0,91,0.00,,,0.00,12,Wunderground v.1.15,2013-02-26 12:12:00,
2013-02-26 07:17:00,24.2,22.0,30.12,North,360,0.0,0.0,91,0.00,,,0.00,16,Wunderground v.1.15,2013-02-26 12:17:00,
2013-02-26 07:22:00,24.2,22.0,30.13,SW,236,0.0,0.0,91,0.00,,,0.00,19,Wunderground v.1.15,2013-02-26 12:22:00,
2013-02-26 07:28:00,24.3,21.8,30.13,WSW,237,0.0,0.0,90,0.00,,,0.00,26,Wunderground v.1.15,2013-02-26 12:28:00,
2013-02-26 07:33:00,24.3,21.8,30.12,WSW,238,0.0,2.0,90,0.00,,,0.00,32,Wunderground v.1.15,2013-02-26 12:33:00,
2013-02-26 07:38:00,24.4,21.9,30.12,SW,236,1.0,2.0,90,0.00,,,0.00,37,Wunderground v.1.15,2013-02-26 12:38:00,
2013-02-26 07:44:00,24.6,22.3,30.12,SW,236,1.0,1.0,91,0.00,,,0.00,46,Wunderground v.1.15,2013-02-26 12:44:00,
2013-02-26 07:49:00,24.8,22.3,30.12,North,360,1.0,2.0,90,0.00,,,0.00,51,Wunderground v.1.15,2013-02-26 12:49:00,
2013-02-26 07:54:00,25.0,22.5,30.12,SW,236,1.0,1.0,90,0.00,,,0.00,56,Wunderground v.1.15,2013-02-26 12:54:00,
2013-02-26 08:00:00,25.3,22.8,30.11,SW,235,0.0,0.0,90,0.00,,,0.00,63,Wunderground v.1.15,2013-02-26 13:00:00,
2013-02-26 08:06:00,25.6,22.8,30.11,SW,235,0.0,0.0,89,0.00,,,0.00,69,Wunderground v.1.15,2013-02-26 13:06:00,
2013-02-26 08:11:00,25.9,23.4,30.13,WSW,237,0.0,0.0,90,0.00,,,0.00,72,Wunderground v.1.15,2013-02-26 13:11:00,
2013-02-26 08:16:00,26.3,23.5,30.13,SW,235,0.0,0.0,89,0.00,,,0.00,77,Wunderground v.1.15,2013-02-26 13:16:00,
2013-02-26 08:22:00,26.5,23.7,30.13,WSW,238,0.0,0.0,89,0.00,,,0.00,86,Wunderground v.1.15,2013-02-26 13:22:00,
2013-02-26 08:27:00,26.7,23.9,30.13,WSW,237,0.0,0.0,89,0.00,,,0.00,86,Wunderground v.1.15,2013-02-26 13:27:00,
2013-02-26 08:32:00,26.8,23.7,30.13,SW,235,0.0,0.0,88,0.00,,,0.00,91,Wunderground v.1.15,2013-02-26 13:32:00,
2013-02-26 08:38:00,27.0,23.9,30.13,North,360,0.0,0.0,88,0.00,,,0.00,88,Wunderground v.1.15,2013-02-26 13:38:00,
2013-02-26 08:43:00,27.3,24.5,30.13,WSW,238,0.0,1.0,89,0.00,,,0.00,81,Wunderground v.1.15,2013-02-26 13:43:00,
2013-02-26 08:49:00,27.6,24.8,30.13,ENE,59,0.0,1.0,89,0.00,,,0.00,76,Wunderground v.1.15,2013-02-26 13:49:00,
2013-02-26 08:54:00,28.0,25.2,30.12,East,82,1.0,8.0,89,0.00,,,0.00,76,Wunderground v.1.15,2013-02-26 13:54:00,
2013-02-26 08:59:00,28.3,25.2,30.13,East,94,3.0,8.0,88,0.00,,,0.00,77,Wunderground v.1.15,2013-02-26 13:59:00,
2013-02-26 09:05:00,28.8,25.1,30.13,ESE,109,5.0,8.0,86,0.00,,,0.00,67,Wunderground v.1.15,2013-02-26 14:05:00,
2013-02-26 09:11:00,29.4,25.2,30.13,ESE,109,6.0,6.0,84,0.00,,,0.00,67,Wunderground v.1.15,2013-02-26 14:11:00,
2013-02-26 09:16:00,30.1,24.7,30.12,ENE,71,6.0,9.0,80,0.00,,,0.00,69,Wunderground v.1.15,2013-02-26 14:16:00,
2013-02-26 09:21:00,30.5,25.4,30.11,East,92,5.0,8.0,81,0.00,,,0.00,76,Wunderground v.1.15,2013-02-26 14:21:00,
2013-02-26 09:27:00,30.7,25.0,30.11,ENE,61,6.0,9.0,79,0.00,,,0.00,97,Wunderground v.1.15,2013-02-26 14:27:00,
2013-02-26 09:32:00,31.0,25.6,30.11,East,86,7.0,10.0,80,0.00,,,0.00,98,Wunderground v.1.15,2013-02-26 14:32:00,
2013-02-26 09:37:00,31.2,25.7,30.11,East,84,7.0,10.0,80,0.00,,,0.00,98,Wunderground v.1.15,2013-02-26 14:37:00,
2013-02-26 09:43:00,31.4,25.3,30.10,East,81,8.0,10.0,78,0.00,,,0.00,91,Wunderground v.1.15,2013-02-26 14:43:00,
2013-02-26 09:48:00,31.5,25.1,30.09,ENE,78,8.0,10.0,77,0.00,,,0.00,81,Wunderground v.1.15,2013-02-26 14:48:00,
2013-02-26 09:54:00,31.6,24.9,30.10,East,90,7.0,10.0,76,0.00,,,0.00,62,Wunderground v.1.15,2013-02-26 14:54:00,
2013-02-26 09:59:00,31.7,25.3,30.11,ESE,105,7.0,10.0,77,0.00,,,0.00,54,Wunderground v.1.15,2013-02-26 14:59:00,
2013-02-26 10:05:00,31.8,25.1,30.10,ENE,72,6.0,8.0,76,0.00,,,0.00,60,Wunderground v.1.15,2013-02-26 15:05:00,
2013-02-26 10:10:00,31.9,25.2,30.10,ENE,77,6.0,6.0,76,0.00,,,0.00,62,Wunderground v.1.15,2013-02-26 15:10:00,
2013-02-26 10:15:00,32.0,25.9,30.09,East,80,7.0,9.0,78,0.00,,,0.00,62,Wunderground v.1.15,2013-02-26 15:15:00,
2013-02-26 10:21:00,32.1,25.4,30.10,ENE,65,6.0,8.0,76,0.00,,,0.00,63,Wunderground v.1.15,2013-02-26 15:21:00,
2013-02-26 10:27:00,32.2,25.8,30.10,ESE,106,7.0,12.0,77,0.00,,,0.00,67,Wunderground v.1.15,2013-02-26 15:27:00,
2013-02-26 10:32:00,32.3,25.9,30.10,ENE,77,6.0,7.0,77,0.00,,,0.00,62,Wunderground v.1.15,2013-02-26 15:32:00,
2013-02-26 10:37:00,32.4,25.7,30.09,ENE,61,5.0,8.0,76,0.00,,,0.00,56,Wunderground v.1.15,2013-02-26 15:37:00,
2013-02-26 10:43:00,32.5,26.1,30.10,NE,53,5.0,6.0,77,0.00,,,0.00,49,Wunderground v.1.15,2013-02-26 15:43:00,
2013-02-26 10:48:00,32.6,25.9,30.09,ENE,67,5.0,11.0,76,0.00,,,0.00,54,Wunderground v.1.15,2013-02-26 15:48:00,
2013-02-26 10:53:00,32.6,25.9,30.09,ENE,73,7.0,9.0,76,0.00,,,0.00,54,Wunderground v.1.15,2013-02-26 15:53:00,
2013-02-26 10:59:00,32.6,25.9,30.09,ENE,59,7.0,10.0,76,0.00,,,0.00,60,Wunderground v.1.15,2013-02-26 15:59:00,
2013-02-26 11:05:00,32.7,26.3,30.10,ENE,59,6.0,8.0,77,0.00,,,0.00,56,Wunderground v.1.15,2013-02-26 16:05:00,
2013-02-26 11:10:00,32.7,26.6,30.09,NE,54,6.0,6.0,78,0.00,,,0.00,51,Wunderground v.1.15,2013-02-26 16:10:00,
2013-02-26 11:15:00,32.6,27.1,30.09,East,96,6.0,8.0,80,0.00,,,0.00,47,Wunderground v.1.15,2013-02-26 16:15:00,
2013-02-26 11:21:00,32.4,27.5,30.09,ENE,65,5.0,10.0,82,0.00,,,0.00,42,Wunderground v.1.15,2013-02-26 16:21:00,
2013-02-26 11:26:00,32.1,27.5,30.09,ENE,69,7.0,10.0,83,0.00,,,0.01,49,Wunderground v.1.15,2013-02-26 16:26:00,
2013-02-26 11:31:00,31.9,27.9,30.08,East,87,8.0,8.0,85,0.00,,,0.01,54,Wunderground v.1.15,2013-02-26 16:31:00,
2013-02-26 11:37:00,31.7,28.0,30.08,East,80,7.0,9.0,86,0.00,,,0.01,62,Wunderground v.1.15,2013-02-26 16:37:00,
2013-02-26 11:42:00,31.5,28.1,30.08,ENE,76,8.0,8.0,87,0.00,,,0.01,58,Wunderground v.1.15,2013-02-26 16:42:00,
2013-02-26 11:48:00,31.4,28.3,30.07,ENE,67,8.0,9.0,88,0.00,,,0.01,62,Wunderground v.1.15,2013-02-26 16:48:00,
2013-02-26 11:53:00,31.2,28.3,30.08,East,96,8.0,9.0,89,0.00,,,0.02,56,Wunderground v.1.15,2013-02-26 16:53:00,
2013-02-26 11:59:00,31.0,28.4,30.07,ENE,67,8.0,9.0,90,0.07,,,0.03,44,Wunderground v.1.15,2013-02-26 16:59:00,
2013-02-26 12:04:00,30.9,28.6,30.07,ENE,63,7.0,9.0,91,0.13,,,0.04,39,Wunderground v.1.15,2013-02-26 17:04:00,
2013-02-26 12:10:00,30.8,28.8,30.07,East,80,6.0,9.0,92,0.10,,,0.05,40,Wunderground v.1.15,2013-02-26 17:10:00,
2013-02-26 12:15:00,30.6,28.8,30.07,East,96,7.0,11.0,93,0.15,,,0.06,42,Wunderground v.1.15,2013-02-26 17:15:00,
2013-02-26 12:21:00,30.4,28.9,30.06,NE,45,8.0,8.0,94,0.16,,,0.07,46,Wunderground v.1.15,2013-02-26 17:21:00,
2013-02-26 12:26:00,30.4,29.1,30.06,NE,50,7.0,8.0,95,0.11,,,0.08,47,Wunderground v.1.15,2013-02-26 17:26:00,
2013-02-26 12:31:00,30.3,29.0,30.07,ENE,78,5.0,7.0,95,0.07,,,0.08,46,Wunderground v.1.15,2013-02-26 17:31:00,
2013-02-26 12:37:00,30.2,29.2,30.06,East,80,6.0,10.0,96,0.04,,,0.08,46,Wunderground v.1.15,2013-02-26 17:37:00,
2013-02-26 12:42:00,30.1,29.1,30.05,East,83,7.0,7.0,96,0.04,,,0.09,35,Wunderground v.1.15,2013-02-26 17:42:00,
2013-02-26 12:47:00,30.1,29.1,30.04,ENE,67,5.0,9.0,96,0.04,,,0.09,33,Wunderground v.1.15,2013-02-26 17:47:00,
2013-02-26 12:53:00,30.0,29.0,30.03,ENE,57,6.0,7.0,96,0.06,,,0.10,32,Wunderground v.1.15,2013-02-26 17:53:00,
2013-02-26 12:58:00,29.9,28.9,30.04,East,87,5.0,7.0,96,0.09,,,0.11,26,Wunderground v.1.15,2013-02-26 17:58:00,
2013-02-26 13:04:00,29.7,29.0,30.03,NE,42,6.0,9.0,97,0.09,,,0.12,25,Wunderground v.1.15,2013-02-26 18:04:00,
2013-02-26 13:09:00,29.6,28.9,30.02,NE,39,7.0,9.0,97,0.08,,,0.12,19,Wunderground v.1.15,2013-02-26 18:09:00,
2013-02-26 13:14:00,29.5,28.8,30.01,ENE,65,6.0,10.0,97,0.06,,,0.13,19,Wunderground v.1.15,2013-02-26 18:14:00,
2013-02-26 13:20:00,29.4,28.9,30.00,NE,52,5.0,5.0,98,0.11,,,0.14,23,Wunderground v.1.15,2013-02-26 18:20:00,
2013-02-26 13:25:00,29.3,28.8,30.00,NE,51,2.0,5.0,98,0.08,,,0.15,23,Wunderground v.1.15,2013-02-26 18:25:00,
2013-02-26 13:30:00,29.3,28.8,30.00,NE,51,0.0,0.0,98,0.08,,,0.15,23,Wunderground v.1.15,2013-02-26 18:30:00,
2013-02-26 13:36:00,29.2,28.7,29.99,NE,51,0.0,0.0,98,0.10,,,0.16,28,Wunderground v.1.15,2013-02-26 18:36:00,
2013-02-26 13:41:00,29.3,28.8,29.98,NE,51,0.0,0.0,98,0.08,,,0.17,26,Wunderground v.1.15,2013-02-26 18:41:00,
2013-02-26 13:47:00,29.2,28.7,29.97,NE,53,0.0,0.0,98,0.09,,,0.18,37,Wunderground v.1.15,2013-02-26 18:47:00,
2013-02-26 13:52:00,29.2,28.7,29.97,NE,50,0.0,0.0,98,0.09,,,0.18,35,Wunderground v.1.15,2013-02-26 18:52:00,
2013-02-26 13:57:00,29.2,29.0,29.97,NE,53,0.0,0.0,99,0.05,,,0.19,28,Wunderground v.1.15,2013-02-26 18:57:00,
2013-02-26 14:03:00,29.3,29.1,29.96,NE,53,0.0,0.0,99,0.05,,,0.19,21,Wunderground v.1.15,2013-02-26 19:03:00,
2013-02-26 14:09:00,29.3,29.1,29.95,NE,53,0.0,0.0,99,0.07,,,0.20,26,Wunderground v.1.15,2013-02-26 19:09:00,
2013-02-26 14:14:00,29.3,29.1,29.95,NE,51,0.0,0.0,99,0.10,,,0.21,25,Wunderground v.1.15,2013-02-26 19:14:00,
2013-02-26 14:20:00,29.4,29.2,29.95,NE,53,0.0,0.0,99,0.13,,,0.23,19,Wunderground v.1.15,2013-02-26 19:20:00,
2013-02-26 14:25:00,29.4,29.4,29.94,NE,52,0.0,0.0,100,0.10,,,0.23,19,Wunderground v.1.15,2013-02-26 19:25:00,
2013-02-26 14:31:00,29.4,29.4,29.94,NE,51,0.0,0.0,100,0.08,,,0.24,21,Wunderground v.1.15,2013-02-26 19:31:00,
2013-02-26 14:36:00,29.4,29.4,29.95,NE,51,0.0,0.0,100,0.07,,,0.24,28,Wunderground v.1.15,2013-02-26 19:36:00,
2013-02-26 14:41:00,29.5,29.5,29.94,NE,52,0.0,0.0,100,0.04,,,0.24,37,Wunderground v.1.15,2013-02-26 19:41:00,
2013-02-26 14:47:00,29.6,29.6,29.93,NE,51,0.0,0.0,100,0.04,,,0.25,39,Wunderground v.1.15,2013-02-26 19:47:00,
2013-02-26 14:52:00,29.7,29.7,29.94,NE,50,0.0,0.0,100,0.04,,,0.25,39,Wunderground v.1.15,2013-02-26 19:52:00,
2013-02-26 14:57:00,29.7,29.7,29.93,NE,50,0.0,0.0,100,0.04,,,0.25,30,Wunderground v.1.15,2013-02-26 19:57:00,
2013-02-26 15:03:00,29.8,29.8,29.93,NE,52,0.0,0.0,100,0.04,,,0.26,37,Wunderground v.1.15,2013-02-26 20:03:00,
2013-02-26 15:09:00,29.7,29.7,29.92,NE,51,0.0,0.0,100,0.04,,,0.26,30,Wunderground v.1.15,2013-02-26 20:09:00,
2013-02-26 15:14:00,29.7,29.7,29.91,NE,52,0.0,0.0,100,0.04,,,0.26,33,Wunderground v.1.15,2013-02-26 20:14:00,
2013-02-26 15:19:00,29.7,29.7,29.91,NE,51,0.0,0.0,100,0.00,,,0.26,39,Wunderground v.1.15,2013-02-26 20:19:00,
2013-02-26 15:24:00,29.8,29.8,29.91,NE,51,0.0,0.0,100,0.00,,,0.26,25,Wunderground v.1.15,2013-02-26 20:24:00,
2013-02-26 15:30:00,29.8,29.8,29.91,NE,51,0.0,0.0,100,0.00,,,0.26,18,Wunderground v.1.15,2013-02-26 20:30:00,
2013-02-26 15:35:00,29.9,29.9,29.90,NE,51,0.0,0.0,100,0.00,,,0.26,21,Wunderground v.1.15,2013-02-26 20:35:00,
2013-02-26 15:41:00,29.9,29.9,29.89,NE,51,0.0,0.0,100,0.00,,,0.26,18,Wunderground v.1.15,2013-02-26 20:41:00,
2013-02-26 15:46:00,30.0,30.0,29.89,NE,53,0.0,0.0,100,0.00,,,0.27,18,Wunderground v.1.15,2013-02-26 20:46:00,
2013-02-26 15:51:00,30.1,30.1,29.89,NE,52,0.0,0.0,100,0.00,,,0.27,14,Wunderground v.1.15,2013-02-26 20:51:00,
2013-02-26 15:57:00,30.2,30.2,29.89,NE,50,0.0,0.0,100,0.00,,,0.27,18,Wunderground v.1.15,2013-02-26 20:57:00,
2013-02-26 16:03:00,30.3,30.3,29.89,NE,51,0.0,0.0,100,0.00,,,0.27,16,Wunderground v.1.15,2013-02-26 21:03:00,
2013-02-26 16:08:00,30.3,30.3,29.88,NE,51,0.0,0.0,100,0.00,,,0.28,21,Wunderground v.1.15,2013-02-26 21:08:00,
2013-02-26 16:14:00,30.3,30.3,29.87,NE,50,0.0,0.0,100,0.10,,,0.29,19,Wunderground v.1.15,2013-02-26 21:14:00,
2013-02-26 16:19:00,30.3,30.3,29.87,NE,51,0.0,0.0,100,0.12,,,0.30,12,Wunderground v.1.15,2013-02-26 21:19:00,
2013-02-26 16:25:00,30.3,30.3,29.87,NE,54,0.0,0.0,100,0.06,,,0.30,16,Wunderground v.1.15,2013-02-26 21:25:00,
2013-02-26 16:30:00,30.2,30.2,29.86,NE,51,0.0,0.0,100,0.06,,,0.31,23,Wunderground v.1.15,2013-02-26 21:30:00,
2013-02-26 16:35:00,30.2,30.2,29.86,NE,50,0.0,0.0,100,0.09,,,0.32,19,Wunderground v.1.15,2013-02-26 21:35:00,
2013-02-26 16:40:00,30.3,30.3,29.85,NE,52,0.0,0.0,100,0.07,,,0.32,11,Wunderground v.1.15,2013-02-26 21:40:00,
2013-02-26 16:46:00,30.4,30.4,29.85,NE,52,0.0,0.0,100,0.06,,,0.33,7,Wunderground v.1.15,2013-02-26 21:46:00,
2013-02-26 16:51:00,30.4,30.4,29.85,NE,50,0.0,0.0,100,0.06,,,0.33,14,Wunderground v.1.15,2013-02-26 21:51:00,
2013-02-26 16:57:00,30.5,30.5,29.84,NE,52,0.0,0.0,100,0.05,,,0.34,14,Wunderground v.1.15,2013-02-26 21:57:00,
2013-02-26 17:03:00,30.5,30.5,29.84,NE,49,0.0,0.0,100,0.08,,,0.35,16,Wunderground v.1.15,2013-02-26 22:03:00,
2013-02-26 17:08:00,30.5,30.5,29.83,NE,53,0.0,0.0,100,0.15,,,0.37,9,Wunderground v.1.15,2013-02-26 22:08:00,
2013-02-26 17:13:00,30.5,30.5,29.83,NE,55,0.0,0.0,100,0.20,,,0.38,14,Wunderground v.1.15,2013-02-26 22:13:00,
2013-02-26 17:18:00,30.5,30.5,29.84,NE,51,0.0,0.0,100,0.07,,,0.38,9,Wunderground v.1.15,2013-02-26 22:18:00,
2013-02-26 17:24:00,30.3,30.3,29.81,NE,51,0.0,0.0,100,0.04,,,0.38,7,Wunderground v.1.15,2013-02-26 22:24:00,
2013-02-26 17:29:00,30.3,30.3,29.80,NE,52,0.0,0.0,100,0.00,,,0.39,5,Wunderground v.1.15,2013-02-26 22:29:00,
2013-02-26 17:34:00,30.4,30.4,29.80,NE,52,0.0,0.0,100,0.00,,,0.39,0,Wunderground v.1.15,2013-02-26 22:34:00,
2013-02-26 17:40:00,30.5,30.5,29.79,NE,54,0.0,0.0,100,0.08,,,0.40,0,Wunderground v.1.15,2013-02-26 22:40:00,
2013-02-26 17:45:00,30.6,30.6,29.79,NE,52,0.0,0.0,100,0.10,,,0.41,0,Wunderground v.1.15,2013-02-26 22:45:00,
2013-02-26 17:51:00,30.7,30.7,29.78,NE,51,0.0,0.0,100,0.06,,,0.41,0,Wunderground v.1.15,2013-02-26 22:51:00,
2013-02-26 17:56:00,30.6,30.6,29.79,NNE,19,0.0,0.0,100,0.05,,,0.42,0,Wunderground v.1.15,2013-02-26 22:56:00,
2013-02-26 18:02:00,30.6,30.6,29.79,NNE,17,0.0,0.0,100,0.07,,,0.43,0,Wunderground v.1.15,2013-02-26 23:02:00,
2013-02-26 18:07:00,30.7,30.7,29.78,ENE,57,0.0,0.0,100,0.07,,,0.43,0,Wunderground v.1.15,2013-02-26 23:07:00,
2013-02-26 18:12:00,30.8,30.8,29.78,ENE,57,0.0,0.0,100,0.06,,,0.43,0,Wunderground v.1.15,2013-02-26 23:12:00,
2013-02-26 18:18:00,30.9,30.9,29.78,NNE,19,0.0,0.0,100,0.04,,,0.44,0,Wunderground v.1.15,2013-02-26 23:18:00,
2013-02-26 18:23:00,30.8,30.8,29.78,NNE,18,0.0,0.0,100,0.08,,,0.45,0,Wunderground v.1.15,2013-02-26 23:23:00,
2013-02-26 18:28:00,30.7,30.7,29.79,NNE,17,0.0,0.0,100,0.13,,,0.46,0,Wunderground v.1.15,2013-02-26 23:28:00,
2013-02-26 18:34:00,30.8,30.8,29.79,NNE,18,0.0,0.0,100,0.09,,,0.47,0,Wunderground v.1.15,2013-02-26 23:34:00,
2013-02-26 18:39:00,30.8,30.8,29.77,NNE,17,0.0,0.0,100,0.19,,,0.48,0,Wunderground v.1.15,2013-02-26 23:39:00,
2013-02-26 18:44:00,30.8,30.8,29.77,NNE,19,0.0,0.0,100,0.11,,,0.49,0,Wunderground v.1.15,2013-02-26 23:44:00,
2013-02-26 18:50:00,30.7,30.7,29.79,NNE,15,0.0,0.0,100,0.08,,,0.50,0,Wunderground v.1.15,2013-02-26 23:50:00,
2013-02-26 18:55:00,30.6,30.6,29.80,NNE,13,0.0,0.0,100,0.08,,,0.50,0,Wunderground v.1.15,2013-02-26 23:55:00,
2013-02-26 19:00:00,30.5,30.5,29.80,NNE,14,0.0,0.0,100,0.09,,,0.51,0,Wunderground v.1.15,2013-02-27 00:00:00,
2013-02-26 19:06:00,30.5,30.5,29.80,NNE,15,0.0,0.0,100,0.10,,,0.52,0,Wunderground v.1.15,2013-02-27 00:06:00,
2013-02-26 19:11:00,30.5,30.5,29.80,NNE,15,0.0,0.0,100,0.07,,,0.53,0,Wunderground v.1.15,2013-02-27 00:11:00,
2013-02-26 19:17:00,30.5,30.5,29.82,NNE,15,0.0,0.0,100,0.13,,,0.54,0,Wunderground v.1.15,2013-02-27 00:17:00,
2013-02-26 19:22:00,30.5,30.5,29.82,NNE,14,0.0,0.0,100,0.09,,,0.54,0,Wunderground v.1.15,2013-02-27 00:22:00,
2013-02-26 19:27:00,30.5,30.5,29.81,NNE,19,0.0,0.0,100,0.08,,,0.55,0,Wunderground v.1.15,2013-02-27 00:27:00,
2013-02-26 19:33:00,30.4,30.4,29.81,East,86,0.0,0.0,100,0.09,,,0.56,0,Wunderground v.1.15,2013-02-27 00:33:00,
2013-02-26 19:38:00,30.4,30.4,29.81,East,86,0.0,0.0,100,0.09,,,0.57,0,Wunderground v.1.15,2013-02-27 00:38:00,
2013-02-26 19:44:00,30.4,30.4,29.81,East,85,0.0,0.0,100,0.12,,,0.58,0,Wunderground v.1.15,2013-02-27 00:44:00,
2013-02-26 19:49:00,30.3,30.3,29.81,East,84,0.0,0.0,100,0.08,,,0.59,0,Wunderground v.1.15,2013-02-27 00:49:00,
2013-02-26 19:54:00,30.4,30.4,29.80,East,87,0.0,0.0,100,0.12,,,0.60,0,Wunderground v.1.15,2013-02-27 00:54:00,
2013-02-26 19:59:00,30.5,30.5,29.80,East,83,0.0,0.0,100,0.10,,,0.60,0,Wunderground v.1.15,2013-02-27 00:59:00,
2013-02-26 20:05:00,30.5,30.5,29.78,East,87,0.0,0.0,100,0.09,,,0.61,0,Wunderground v.1.15,2013-02-27 01:05:00,
2013-02-26 20:11:00,30.4,30.4,29.77,East,84,0.0,0.0,100,0.07,,,0.62,0,Wunderground v.1.15,2013-02-27 01:11:00,
2013-02-26 20:16:00,30.4,30.4,29.77,East,83,0.0,0.0,100,0.07,,,0.62,0,Wunderground v.1.15,2013-02-27 01:16:00,
2013-02-26 20:21:00,30.5,30.5,29.76,East,85,0.0,0.0,100,0.05,,,0.62,0,Wunderground v.1.15,2013-02-27 01:21:00,
2013-02-26 20:27:00,30.4,30.4,29.77,NNE,30,0.0,0.0,100,0.00,,,0.62,0,Wunderground v.1.15,2013-02-27 01:27:00,
2013-02-26 20:32:00,30.3,30.3,29.77,North,9,0.0,0.0,100,0.00,,,0.62,0,Wunderground v.1.15,2013-02-27 01:32:00,
2013-02-26 20:37:00,30.2,30.2,29.77,North,9,0.0,0.0,100,0.00,,,0.63,0,Wunderground v.1.15,2013-02-27 01:37:00,
2013-02-26 20:43:00,30.4,30.4,29.77,NNE,23,2.0,5.0,100,0.00,,,0.63,0,Wunderground v.1.15,2013-02-27 01:43:00,
2013-02-26 20:48:00,30.5,30.5,29.77,NE,52,3.0,6.0,100,0.00,,,0.63,0,Wunderground v.1.15,2013-02-27 01:48:00,
2013-02-26 20:54:00,30.5,30.5,29.76,NE,55,3.0,3.0,100,0.00,,,0.63,0,Wunderground v.1.15,2013-02-27 01:54:00,
2013-02-26 20:59:00,30.5,30.5,29.76,NE,55,2.0,3.0,100,0.00,,,0.63,0,Wunderground v.1.15,2013-02-27 01:59:00,
2013-02-26 21:05:00,30.5,30.5,29.76,North,9,2.0,4.0,100,0.00,,,0.63,0,Wunderground v.1.15,2013-02-27 02:05:00,
2013-02-26 21:10:00,30.6,30.6,29.76,NNE,26,3.0,3.0,100,0.00,,,0.64,0,Wunderground v.1.15,2013-02-27 02:10:00,
2013-02-26 21:16:00,30.6,30.6,29.75,ENE,71,3.0,4.0,100,0.00,,,0.64,0,Wunderground v.1.15,2013-02-27 02:16:00,
2013-02-26 21:21:00,30.6,30.6,29.76,ENE,70,2.0,2.0,100,0.00,,,0.64,0,Wunderground v.1.15,2013-02-27 02:21:00,
2013-02-26 21:27:00,30.6,30.6,29.76,NE,48,0.0,2.0,100,0.00,,,0.64,0,Wunderground v.1.15,2013-02-27 02:27:00,
2013-02-26 21:33:00,30.5,30.5,29.75,NNE,33,1.0,2.0,100,0.00,,,0.64,0,Wunderground v.1.15,2013-02-27 02:33:00,
2013-02-26 21:38:00,30.6,30.6,29.74,NE,35,2.0,4.0,100,0.00,,,0.64,0,Wunderground v.1.15,2013-02-27 02:38:00,
2013-02-26 21:44:00,30.6,30.6,29.74,NE,34,1.0,2.0,100,0.00,,,0.64,0,Wunderground v.1.15,2013-02-27 02:44:00,
2013-02-26 21:49:00,30.6,30.6,29.74,NE,34,1.0,2.0,100,0.00,,,0.64,0,Wunderground v.1.15,2013-02-27 02:49:00,
2013-02-26 21:55:00,30.6,30.6,29.74,NE,34,0.0,1.0,100,0.00,,,0.64,0,Wunderground v.1.15,2013-02-27 02:55:00,
2013-02-26 22:00:00,30.6,30.6,29.74,NE,34,1.0,3.0,100,0.00,,,0.64,0,Wunderground v.1.15,2013-02-27 03:00:00,
2013-02-26 22:06:00,30.7,30.7,29.74,WNW,302,2.0,3.0,100,0.00,,,0.64,0,Wunderground v.1.15,2013-02-27 03:06:00,
2013-02-26 22:11:00,30.7,30.7,29.73,NW,305,1.0,1.0,100,0.00,,,0.64,0,Wunderground v.1.15,2013-02-27 03:11:00,
2013-02-26 22:17:00,30.7,30.7,29.72,NNW,338,1.0,2.0,100,0.00,,,0.64,0,Wunderground v.1.15,2013-02-27 03:17:00,
2013-02-26 22:23:00,30.7,30.7,29.73,NNW,338,1.0,1.0,100,0.00,,,0.64,0,Wunderground v.1.15,2013-02-27 03:23:00,
2013-02-26 22:28:00,30.7,30.7,29.73,NE,42,1.0,4.0,100,0.00,,,0.64,0,Wunderground v.1.15,2013-02-27 03:28:00,
2013-02-26 22:33:00,30.6,30.6,29.73,NE,42,1.0,1.0,100,0.00,,,0.64,0,Wunderground v.1.15,2013-02-27 03:33:00,
2013-02-26 22:38:00,30.7,30.7,29.72,NE,42,0.0,1.0,100,0.00,,,0.64,0,Wunderground v.1.15,2013-02-27 03:38:00,
2013-02-26 22:44:00,30.7,30.7,29.72,NE,41,1.0,3.0,100,0.00,,,0.65,0,Wunderground v.1.15,2013-02-27 03:44:00,
2013-02-26 22:49:00,30.7,30.7,29.72,NNW,344,2.0,3.0,100,0.00,,,0.65,0,Wunderground v.1.15,2013-02-27 03:49:00,
2013-02-26 22:55:00,30.7,30.7,29.72,North,9,3.0,4.0,100,0.04,,,0.66,0,Wunderground v.1.15,2013-02-27 03:55:00,
2013-02-26 23:00:00,30.8,30.8,29.72,North,9,2.0,2.0,100,0.04,,,0.66,0,Wunderground v.1.15,2013-02-27 04:00:00,
2013-02-26 23:06:00,30.7,30.7,29.72,North,9,0.0,2.0,100,0.04,,,0.66,0,Wunderground v.1.15,2013-02-27 04:06:00,
2013-02-26 23:12:00,30.7,30.7,29.71,North,11,0.0,0.0,100,0.00,,,0.66,0,Wunderground v.1.15,2013-02-27 04:12:00,
2013-02-26 23:17:00,30.8,30.8,29.71,North,5,0.0,0.0,100,0.00,,,0.66,0,Wunderground v.1.15,2013-02-27 04:17:00,
2013-02-26 23:23:00,31.0,31.0,29.70,North,9,0.0,0.0,100,0.00,,,0.66,0,Wunderground v.1.15,2013-02-27 04:23:00,
2013-02-26 23:28:00,31.0,31.0,29.71,North,5,0.0,0.0,100,0.00,,,0.66,0,Wunderground v.1.15,2013-02-27 04:28:00,
2013-02-26 23:33:00,31.1,31.1,29.70,North,5,0.0,0.0,100,0.00,,,0.67,0,Wunderground v.1.15,2013-02-27 04:33:00,
2013-02-26 23:39:00,31.2,31.2,29.70,North,5,0.0,0.0,100,0.07,,,0.68,0,Wunderground v.1.15,2013-02-27 04:39:00,
2013-02-26 23:44:00,31.3,31.3,29.69,North,5,0.0,0.0,100,0.07,,,0.68,0,Wunderground v.1.15,2013-02-27 04:44:00,
2013-02-26 23:50:00,31.2,31.2,29.69,North,5,0.0,0.0,100,0.05,,,0.68,0,Wunderground v.1.15,2013-02-27 04:50:00,
2013-02-26 23:55:00,31.2,31.2,29.69,North,5,0.0,0.0,100,0.04,,,0.69,0,Wunderground v.1.15,2013-02-27 04:55:00,